This is the latest recevied weather packets stored in our database for station/object KC3VCX. If no packets are shown the sender has not sent any weather packets the latest 10 day(s).
| Time | Temp. | Humidity | Pressure | Rain* | Wind** | Luminosity | Snow |
|---|---|---|---|---|---|---|---|
| 1777909190 | 18.33° C | 47% | 1012.8 hPa | 0 mm | - | 738 W/m² | - |
| 1777908888 | 18.89° C | 48% | 1012.8 hPa | 0 mm | - | 731 W/m² | - |
| 1777908585 | 17.78° C | 49% | 1012.8 hPa | 0 mm | - | 722 W/m² | - |
| 1777908282 | 17.78° C | 49% | 1013 hPa | 0 mm | - | 715 W/m² | - |
| 1777907978 | 18.33° C | 48% | 1013.1 hPa | 0 mm | - | 707 W/m² | - |
| 1777907674 | 18.89° C | 47% | 1012.8 hPa | 0 mm | - | 697 W/m² | - |
| 1777907369 | 18.33° C | 47% | 1012.9 hPa | 0 mm | - | 687 W/m² | - |
| 1777907066 | 17.78° C | 52% | 1013 hPa | 0 mm | - | 676 W/m² | - |
| 1777906764 | 17.22° C | 50% | 1012.8 hPa | 0 mm | - | 667 W/m² | - |
| 1777906460 | 17.22° C | 52% | 1012.9 hPa | 0 mm | - | 658 W/m² | - |
| 1777906157 | 17.22° C | 50% | 1013.1 hPa | 0 mm | - | 645 W/m² | - |
| 1777905854 | 16.67° C | 51% | 1012.9 hPa | 0 mm | - | 632 W/m² | - |
| 1777905550 | 17.22° C | 50% | 1012.9 hPa | 0 mm | - | 621 W/m² | - |
| 1777905248 | 16.67° C | 50% | 1012.8 hPa | 0 mm | - | 608 W/m² | - |
| 1777904945 | 16.67° C | 50% | 1012.7 hPa | 0 mm | - | 595 W/m² | - |
| 1777904642 | 16.11° C | 53% | 1013 hPa | 0 mm | - | 581 W/m² | - |
| 1777904339 | 16.11° C | 49% | 1013 hPa | 0 mm | - | 570 W/m² | - |
| 1777904036 | 16.11° C | 49% | 1012.8 hPa | 0 mm | - | 558 W/m² | - |
| 1777903732 | 15.56° C | 51% | 1013.2 hPa | 0 mm | - | 540 W/m² | - |
| 1777903428 | 15.56° C | 53% | 1013.2 hPa | 0 mm | - | 530 W/m² | - |
| 1777903125 | 15° C | 53% | 1013.1 hPa | 0 mm | - | 519 W/m² | - |
| 1777902822 | 15.56° C | 51% | 1013.3 hPa | 0 mm | - | 503 W/m² | - |
| 1777902519 | 15° C | 52% | 1013.4 hPa | 0 mm | - | 487 W/m² | - |
| 1777902216 | 15° C | 52% | 1013.2 hPa | 0 mm | - | 475 W/m² | - |
| 1777901914 | 15° C | 52% | 1013.3 hPa | 0 mm | - | 457 W/m² | - |
* Rain latest hour (hover to see other rain measurements)
** Current wind speed in m/s (hover to see current wind gust speed)